Weather in Goyang

South Korea     37°38′16″N   126°49′53″E
temp.,
°C
wind,
m/s
gust,
m/s
humid.,
%
clouds,
%
prec.,
mm/h
press.,
hPa
HPBL,
m
8 may, sat
sat800:00+11ssw36690 0.0 1008315
03:00+11sse36690 0.0 1007282
06:00+10s411650 0.0 1006456
09:00+15s612480 0.0 1005752
12:00+19ssw814362 0.0 10031055
15:00+19sw10174188 0.0 10001399
18:00+14wsw71077100 0.0 1001909
21:00+14w411500 0.1 10041042
9 may, sun
sun900:00+12wnw310570 0.0 1006647
03:00+11wsw28610 0.0 1006295
06:00+11w412700 0.0 1008566
09:00+15w712490 0.0 1009998
12:00+20w814250 0.0 10092753
15:00+21wnw813160 0.0 10082550
18:00+19nw611234 0.0 10091781
21:00+16wsw273990 0.0 1011304
10 may, mon
mon1000:00+14nw114111 0.0 101276
03:00+14nnw1342100 0.0 1013135
06:00+12sw3669100 1.1 1015283
09:00+12s2371100 2.9 1016406
12:00+12sse1273100 0.9 1015479
15:00+13sse1272100 2.3 1015789
18:00+15se2361100 0.0 1014877
21:00+13e117397 0.0 101534
11 may, tue
tue1100:00+12e1177100 0.0 101515
03:00+11ne228059 0.0 101540
06:00+11e11775 0.0 101622
09:00+17e24415 0.0 1015397
12:00+24ese472072 0.0 10141481
15:00+27se4618100 0.0 10122271
18:00+25se572310 0.0 10131213
21:00+20se41033100 0.0 1014777
12 may, wed
wed1200:00+18ese41130100 0.0 1015604
03:00+16ene2441100 0.0 1015171
06:00+15ene244217 0.0 1014129
09:00+20ese37246 0.0 1015646
12:00+24se452596 0.0 10141254
15:00+26sse332797 0.0 10111534
18:00+24wsw443879 0.0 1012618
21:00+21nnw344788 0.0 1013251